Valladolid Airport, Spain

4:23 AM CEST on April 29, 2017 (GMT +0200)
Villanubla

Weather History for LEVD - January, 2013

Change the Weather History Date:

Tuesday, January 15, 2013

  Actual Average Record
Temperature  
Mean Temperature 37 °F -  
Max Temperature 44 °F - - ()
Min Temperature 30 °F - - ()
Degree Days  
Heating Degree Days 28    
Moisture  
Dew Point 34 °F    
Average Humidity 87    
Maximum Humidity 100    
Minimum Humidity 76    
Precipitation  
Precipitation 0.00 in - - ()
Sea Level Pressure  
Sea Level Pressure 30.11 in    
Wind  
Wind Speed 10 mph ()    
Max Wind Speed 18 mph    
Max Gust Speed -    
Visibility 6.2 miles    
Events      
T = Trace of Precipitation, MM = Missing Value Source: Averaged Metar Reports

Daily Weather History Graph

Daily Weather History Graph

Search for Another Location

Airport or City:

Trip Planner

Search our weather history database for the weather conditions in past years. The results will help you decide how hot, cold, wet, or windy it might be!

Date:

Astronomy

Jan. 15, 2013 Rise Set
Actual Time 8:44 AM CET 6:13 PM CET
Civil Twilight 8:13 AM CET 6:44 PM CET
Nautical Twilight 7:39 AM CET 7:18 PM CET
Astronomical Twilight 7:05 AM CET 7:52 PM CET
Moon 10:38 AM CET (1/15) 10:53 PM CET (1/15)
Length of Visible Light 10h 31m
Length of Day
9h 29m
Waxing Crescent, 17% of the Moon is Illuminated
Jan 15
Waxing Crescent
Jan 19
First Quarter
Jan 27
Full
Feb 3
Last Quarter
Feb 10
New

Hourly Weather History & Observations

Time (CET) Temp. Windchill Dew Point Humidity Pressure Visibility Wind Dir Wind Speed Gust Speed Precip Events Conditions
6:00 AM 32.0 °F 24.8 °F 30.2 °F 93% 30.12 in - West 8.1 mph - N/A   Clear
7:00 AM 32.0 °F 24.2 °F 30.2 °F 93% 30.09 in - WNW 9.2 mph - N/A   Clear
7:30 AM 32.0 °F 24.2 °F 30.2 °F 93% 30.09 in - West 9.2 mph - N/A   Clear
8:00 AM 32.0 °F 23.0 °F 30.2 °F 93% 30.09 in - West 11.5 mph - N/A   Clear
8:30 AM 32.0 °F 24.2 °F 28.4 °F 87% 30.12 in - West 9.2 mph - N/A   Clear
9:00 AM 30.2 °F 20.8 °F 28.4 °F 93% 30.12 in 6.2 mi West 11.5 mph - N/A   Partly Cloudy
9:30 AM 30.2 °F 20.8 °F 30.2 °F 100% 30.12 in - West 11.5 mph - N/A   Clear
10:00 AM 30.2 °F 22.6 °F 30.2 °F 100% 30.12 in - WSW 8.1 mph - N/A   Clear
10:30 AM 32.0 °F 24.8 °F 32.0 °F 100% 30.12 in - WSW 8.1 mph - N/A   Clear
11:00 AM 33.8 °F 27.0 °F 32.0 °F 93% 30.12 in - WSW 8.1 mph - N/A   Clear
11:30 AM 35.6 °F 28.0 °F 35.6 °F 100% 30.15 in - WSW 10.4 mph - N/A   Clear
12:00 PM 37.4 °F 30.3 °F 35.6 °F 93% 30.12 in 6.2 mi WSW 10.4 mph - N/A   Partly Cloudy
12:30 PM 41.0 °F 33.5 °F 37.4 °F 87% 30.12 in 6.2 mi WSW 13.8 mph - N/A   Partly Cloudy
1:30 PM 41.0 °F 32.8 °F 37.4 °F 87% 30.09 in 6.2 mi West 16.1 mph - N/A   Partly Cloudy
2:00 PM 42.8 °F 35.1 °F 37.4 °F 81% 30.09 in 6.2 mi West 16.1 mph - N/A   Partly Cloudy
2:30 PM 42.8 °F 34.8 °F 37.4 °F 81% 30.09 in 6.2 mi West 17.3 mph - N/A   Scattered Clouds
3:00 PM 42.8 °F 34.8 °F 37.4 °F 81% 30.09 in 6.2 mi West 17.3 mph - N/A   Scattered Clouds
3:30 PM 42.8 °F 34.8 °F 37.4 °F 81% 30.09 in 6.2 mi West 17.3 mph - N/A   Scattered Clouds
4:00 PM 44.6 °F 38.1 °F 37.4 °F 76% 30.09 in 6.2 mi West 13.8 mph - N/A   Partly Cloudy
4:30 PM 44.6 °F 37.4 °F 37.4 °F 76% 30.09 in 6.2 mi West 16.1 mph - N/A   Partly Cloudy
5:00 PM 42.8 °F 34.5 °F 37.4 °F 81% 30.09 in 6.2 mi West 18.4 mph - N/A   Partly Cloudy
5:30 PM 41.0 °F 33.9 °F 37.4 °F 87% 30.09 in 6.2 mi West 12.7 mph - N/A   Partly Cloudy
6:00 PM 42.8 °F 37.0 °F 37.4 °F 81% 30.09 in 6.2 mi West 10.4 mph - N/A   Partly Cloudy
6:30 PM 41.0 °F 36.4 °F 35.6 °F 81% 30.09 in 6.2 mi West 6.9 mph - N/A   Partly Cloudy
7:00 PM 41.0 °F 35.2 °F 35.6 °F 81% 30.12 in 6.2 mi West 9.2 mph - N/A   Partly Cloudy
7:30 PM 41.0 °F 34.3 °F 33.8 °F 76% 30.12 in 6.2 mi WNW 11.5 mph - N/A   Partly Cloudy
8:00 PM 41.0 °F 35.2 °F 33.8 °F 76% 30.12 in 6.2 mi West 9.2 mph - N/A   Partly Cloudy
8:30 PM 39.2 °F 35.0 °F 33.8 °F 81% 30.12 in 6.2 mi SW 5.8 mph - N/A   Scattered Clouds
9:00 PM 39.2 °F 37.0 °F 33.8 °F 81% 30.12 in 6.2 mi SW 3.5 mph - N/A   Scattered Clouds
9:30 PM 37.4 °F 31.4 °F 33.8 °F 87% 30.09 in 6.2 mi WSW 8.1 mph - N/A   Scattered Clouds
10:00 PM 37.4 °F 32.8 °F 33.8 °F 87% 30.09 in 6.2 mi West 5.8 mph - N/A   Scattered Clouds
10:30 PM 39.2 °F 32.0 °F 33.8 °F 81% 30.09 in 6.2 mi West 11.5 mph - N/A   Scattered Clouds